Find Starlink 3624

NORAD ID: 51773 Int'l Des: 2022-017 Owner: SPXS Country: US Constellation: starlink operational
LEOCIRCULAR

現在のビュー

3D地球を読み込み中...

About Starlink 3624

Starlink 3624 (NORAD 51773) is a starlink constellation satellite (v1.5) launched Feb 25, 2022 by SPXS of US. It operates in LEO, CIRCULAR orbit with a mass of 297.00 kg.

Starlink 3624について

説明を読み込み中...

次回通過

Passes for default location (London). Set your location on the main map for personalized predictions.

高度履歴

Loading altitude history...

軌道要素

1 51773U 22017F 26171.47595647 .00004137 00000-0 27585-3 0 9994
2 51773 53.1844 237.5702 0001061 60.6670 299.4428 15.09113433238123
Epoch: Jun 20, 2026 • Age: 43 hours

現在のステータス

高度 544.7 km
速度 7.60 km/s
衛星直下点 53.23°N, 56.82°W
打ち上げ日 Feb 25, 2022
運用期間 4.3 years
タイプ internet

技術仕様

分類 Payload
質量 297.00 kg
乾燥質量 275.00 kg
総質量 297.00 kg
長さ 0.20 m
直径 2.80 m
スパン 9.00 m
形状 Box + pan
製造者 SPXS
バスタイプ Starlink
フェーズステータス In Orbit
所有者/国 SPXS/US

Most Searched